Volver al catálogo

STARLINK-37355

ActivoComunicacionesVLEO
NORAD 69194·PAYLOAD·🇺🇸 United States

Lanzado May 25, 2026 desde Cape Canaveral Space Force Station

Loading…

Próximos Pases (próximas 24 horas)

TLE

ActualizadoSource: CelesTrak SupGP

Época: Sep 14, 2026, 16:01 UTC

1 69194C 26114N   26257.66784722  .00038125  00000+0  11264-2 0  2578
2 69194  53.1563 141.0434 0001203  94.8670 131.6932 15.34372378    10

Sigue STARLINK-37355 en tiempo real con AllMySat

Download on the App Store